STARLINK-11299 [DTC] (61058 NORAD) Tracking and Keplerian Element Data

This shows tracking and keplerian element data for the satellite.

Feedback or suggestion? Click here.




ElementValue
Catalog61058
NameSTARLINK-11299 [DTC]
Epoch Orbit481
Epoch Day286.50751158
Epoch Year2024
RAAN321.3831
Inclination53.1574
Eccentricity0.0001185
Argument of Perigee81.7652
Mean Anonmoly278.35
Mean Motion15.69727155
Decay Rate0.00041233
L11 61058U 24164J 24286.50751158 .00041233 00000+0 34326-3 0 9994
L22 61058 53.1574 321.3831 0001185 81.7652 278.3500 15.69727155 4818



Live tracking and technical data element details for STARLINK-11299 [DTC] (NORAD 61058). STARLINK-11299 [DTC] can be tracked NOW for your location showing map with azimuth and elevation plus other details from your city location.







IsCatalogInMostPopularTable: catalog: 61058, numindb: 25
Update: records affected: 1



GetName: 61058 STARLINK-11299 [DTC]

Hit Count: updated at: Wed, 04 Dec 2024 08:49:03 GMT